Location: Bouchavesnes-Bergen
(49.9859°N, 2.9203°E)
Time: 03:01:03
(UTC+00:00)

IDEFIX/ARIANE 42P - Pass Details

Date: 03 October 2022
Orbit: 784 x 803 km, 98.5° (Epoch: 06 December)

Event Time Altitude Azimuth Distance (km) Brightness Sun altitude
Rises 01:17:59 0° 21° (NNE) 3,329 6.7 -39.3°
Reaches altitude 10° 01:20:32 10° 30° (NNE) 2,392 5.7 -39.0°
Enters shadow 01:22:56 24° 49° (NE) 1,630 4.6 -38.8°
